Flag for Turkey Weather past 2 weeks in Bodrum, Turkey

Now
86 °F

Sunny.


Feels Like: 91 °F
Forecast: 69 / 83 °F
Wind: 7 mph from South

Location: Bodrum

Current Time: Sep 2, 2015 at 2:44:27 PM

Latest Report: Sep 2, 2015 at 2:00 PM


Visibility: 13 mi

Pressure: 29.88 "Hg

Humidity: 59%

Dew point: 70 °F

Location of BodrumLocation

Historic Weather in Bodrum — Graph

°F

Bodrum temperature yesterday

Maximum temperature yesterday: 90 °F (at 6:00 PM)
Minimum temperature yesterday: 76 °F (at 6:00 AM)
Average temperature yesterday: 83 °F

Past Weeks' High & Low Weather Summary

 TemperatureHumidityPressure
High107 °F (Aug 18, 4:00 PM)83% (Sep 1, 6:00 AM)29.93 "Hg (Sep 1, 6:00 AM)
Low73 °F (Sep 2, 6:00 AM)16% (Aug 31, 12:00 PM)29.71 "Hg (Aug 23, 7:00 PM)
Average89 °F42%29.82 "Hg
* Reported Aug 18 1:00 PM — Sep 2 1:00 PM, Bodrum, Weather by CustomWeather, © 2015

Note: Actual official high and low records may vary slightly from our data, if they occured in-between our weather recording intervals... More about our weather records

Advertising

Bodrum weather history for previous 24 hours

 ConditionsComfort  
Time TempWeatherWind HumidityBarometerVisibility
1:00 PM
Wed, Sep 2
85 °FSunny.6 mph57%29.88 "Hg12 mi
12:00 PM82 °FSunny.5 mph64%29.88 "Hg12 mi
11:00 AM83 °FSunny.3 mph63%29.88 "Hg12 mi
10:00 AM80 °FSunny.3 mph71%29.87 "Hg12 mi
9:00 AM80 °FSunny.2 mph71%29.87 "Hg12 mi
6:00 AM73 °FClear.1 mph82%29.85 "Hg12 mi
3:00 AM75 °FClear.1 mph81%29.86 "Hg12 mi
12:00 AM78 °FClear.1 mph76%29.87 "Hg12 mi
9:00 PM
Tue, Sep 1
80 °FClear.2 mph70%29.86 "Hg12 mi
8:00 PM83 °FClear.2 mph58%29.85 "Hg12 mi
7:00 PM89 °FSunny.2 mph49%29.85 "Hg12 mi
6:00 PM90 °FSunny.2 mph48%29.85 "Hg12 mi
5:00 PM89 °FSunny.5 mph51%29.86 "Hg12 mi
4:00 PM87 °FSunny.6 mph60%29.86 "Hg12 mi
3:00 PM87 °FSunny.7 mph61%29.88 "Hg12 mi
2:00 PM86 °FSunny.5 mph62%29.88 "Hg12 mi
Weather by CustomWeather, © 2015

See weather overviewHow to use our weather pages